Location: Kuppenheim
(48.8299°N, 8.2568°E)
Time: 09:35:50
(UTC+00:00)

NOSS 3-1 (C) - Pass Details

Date: 20 June 2021
Orbit: 724 x 1485 km, 63.4° (Epoch: 20 July)

Event Time Altitude Azimuth Distance (km) Brightness Sun altitude
Exits shadow 00:31:14 15° 240° (WSW) 2,068 4.8 -16.4°
Maximum altitude 00:35:47 61° 319° (NW) 1,012 3.7 -16.2°
Drops below altitude 10° 00:42:14 10° 39° (NE) 2,831 7.0 -15.9°
Sets 00:45:10 0° 43° (NE) 3,912 7.9 -15.7°
